Location: Meanaryar
(48.4161°N, 4.7315°W)
Time: 15:08:37
(UTC+00:00)

Cosmos 1092 Rocket - Pass Details

Date: 21 January 2021
Orbit: 954 x 995 km, 83.0° (Epoch: 01 March)

Event Time Altitude Azimuth Distance (km) Brightness Sun altitude
Rises 05:28:42 0° 355° (N) 3,645 6.9 -24.8°
Reaches altitude 10° 05:31:21 10° 2° (N) 2,695 6.3 -24.4°
Maximum altitude 05:37:11 43° 73° (ENE) 1,324 5.1 -23.4°
Drops below altitude 10° 05:43:00 10° 144° (SE) 2,690 6.8 -22.4°
Sets 05:45:38 0° 151° (SSE) 3,636 7.5 -22.0°
